timestamp,surface_pressure_avg,surface_temp_avg,battery_voltage,lat,long
2018-10-13 00:00:00+00:00,308.008,10.4,13.05,47.84626,-54.09684
2018-10-13 00:10:00+00:00,319.0447,10.4,12.97,47.84626,-54.09684
2018-10-13 00:20:00+00:00,330.2563,10.4,13.05,47.84626,-54.09684
2018-10-13 00:30:00+00:00,334.073,10.4,13.05,47.84626,-54.09684
2018-10-13 00:40:00+00:00,343.128,10.4,13.05,47.84626,-54.09684
2018-10-13 00:50:00+00:00,352.6346,10.4,13.05,47.84626,-54.09684
2018-10-13 01:00:00+00:00,352.9429,10.4,13.05,47.84626,-54.09684
2018-10-13 01:10:00+00:00,355.2563,10.4,12.97,47.84626,-54.09684
2018-10-13 01:20:00+00:00,360.3262,10.4,13.05,47.84626,-54.09684
2018-10-13 01:30:00+00:00,359.9196,10.4,13.05,47.84626,-54.09684
2018-10-13 01:40:00+00:00,359.7946,10.4,13.05,47.84626,-54.09684
2018-10-13 01:50:00+00:00,369.9813,10.4,13.05,47.84626,-54.09684
2018-10-13 02:00:00+00:00,368.2147,10.4,12.97,47.84626,-54.09684
2018-10-13 02:10:00+00:00,359.7246,10.4,12.89,47.84626,-54.09684
2018-10-13 02:20:00+00:00,363.138,10.39,12.97,47.84626,-54.09684
2018-10-13 02:30:00+00:00,366.4663,10.34,12.97,47.84626,-54.09684
2018-10-13 02:40:00+00:00,363.8297,10.3,13.05,47.84626,-54.09684
2018-10-13 02:50:00+00:00,363.8779,10.29,13.05,47.84626,-54.09684
2018-10-13 03:00:00+00:00,368.163,10.26,12.97,47.84626,-54.09684
2018-10-13 03:10:00+00:00,367.8596,10.27,12.89,47.84626,-54.09684
2018-10-13 03:20:00+00:00,361.538,10.3,12.97,47.84626,-54.09684
2018-10-13 03:30:00+00:00,361.2579,10.3,12.97,47.84626,-54.09684
2018-10-13 03:40:00+00:00,362.9763,10.3,12.97,47.84626,-54.09684
2018-10-13 03:50:00+00:00,353.1946,10.3,12.97,47.84626,-54.09684
2018-10-13 04:00:00+00:00,344.8829,10.3,12.89,47.84626,-54.09684
2018-10-13 04:10:00+00:00,348.8663,10.32,12.81,47.84626,-54.09684
2018-10-13 04:20:00+00:00,339.6447,10.3,12.89,47.84626,-54.09684
2018-10-13 04:30:00+00:00,328.0447,10.3,12.89,47.84626,-54.09684
2018-10-13 04:40:00+00:00,327.4297,10.3,12.97,47.84626,-54.09684
2018-10-13 04:50:00+00:00,309.8779,10.2,12.97,47.84626,-54.09684
2018-10-13 05:00:00+00:00,292.563,10.1,12.89,47.84626,-54.09684
2018-10-13 05:10:00+00:00,289.3481,10.12,12.81,47.84626,-54.09684
2018-10-13 05:20:00+00:00,287.4446,10.17,12.89,47.84626,-54.09684
2018-10-13 05:30:00+00:00,272.513,10.1,12.89,47.84626,-54.09684
2018-10-13 05:40:00+00:00,265.2431,10.1,12.89,47.84626,-54.09684
2018-10-13 05:50:00+00:00,256.2347,10.1,12.89,47.84626,-54.09684
2018-10-13 06:00:00+00:00,244.8264,10.1,12.81,47.84626,-54.09684
2018-10-13 06:10:00+00:00,233.3748,10.06,12.73,47.84626,-54.09684
2018-10-13 06:20:00+00:00,224.3514,10.0,12.81,47.84626,-54.09684
2018-10-13 06:30:00+00:00,211.4464,9.9,12.89,47.84626,-54.09684
2018-10-13 06:40:00+00:00,205.4948,9.89,12.89,47.84626,-54.09684
2018-10-13 06:50:00+00:00,209.0698,9.8,12.89,47.84626,-54.09684
2018-10-13 07:00:00+00:00,205.6264,9.8,12.81,47.84626,-54.09684
2018-10-13 07:10:00+00:00,198.4481,9.8,12.73,47.84626,-54.09684
2018-10-13 07:20:00+00:00,203.2031,9.8,12.81,47.84626,-54.09684
2018-10-13 07:30:00+00:00,208.8765,9.8,12.89,47.84626,-54.09684
2018-10-13 07:40:00+00:00,200.4948,9.8,12.89,47.84626,-54.09684
2018-10-13 07:50:00+00:00,188.5948,9.8,12.89,47.84626,-54.09684
2018-10-13 08:00:00+00:00,186.6981,9.8,12.81,47.84626,-54.09684
2018-10-13 08:10:00+00:00,215.2747,9.8,12.73,47.84626,-54.09684
2018-10-13 08:20:00+00:00,251.2498,9.8,12.81,47.84626,-54.09684
2018-10-13 08:30:00+00:00,260.6514,9.8,12.89,47.84626,-54.09684
2018-10-13 08:40:00+00:00,262.3114,9.89,12.89,47.84626,-54.09684
2018-10-13 08:50:00+00:00,262.2897,9.94,12.89,47.84626,-54.09684
2018-10-13 09:00:00+00:00,255.7797,9.9,12.81,47.84626,-54.09684
2018-10-13 09:10:00+00:00,239.8264,9.8,12.73,47.84626,-54.09684
2018-10-13 09:20:00+00:00,220.1348,9.9,12.81,47.84626,-54.09684
2018-10-13 09:30:00+00:00,224.1014,9.89,12.89,47.84626,-54.09684
2018-10-13 09:40:00+00:00,263.1064,9.8,12.89,47.84626,-54.09684
2018-10-13 09:50:00+00:00,278.828,9.8,12.89,47.84626,-54.09684
2018-10-13 10:00:00+00:00,278.4414,9.79,12.81,47.84626,-54.09684
2018-10-13 10:10:00+00:00,256.6781,9.7,12.81,47.84626,-54.09684
2018-10-13 10:20:00+00:00,242.8864,9.7,12.81,47.84626,-54.09684
2018-10-13 10:30:00+00:00,250.0781,9.8,12.89,47.84626,-54.09684
2018-10-13 10:40:00+00:00,272.6581,9.82,12.97,47.84626,-54.09684
2018-10-13 10:50:00+00:00,293.8798,9.9,12.97,47.84626,-54.09684
2018-10-13 11:00:00+00:00,289.4164,9.8,12.97,47.84626,-54.09684
2018-10-13 11:10:00+00:00,276.9047,10.0,12.97,47.84626,-54.09684
2018-10-13 11:20:00+00:00,263.8131,10.01,13.13,47.84626,-54.09684
2018-10-13 11:30:00+00:00,273.8165,10.1,13.37,47.84626,-54.09684
2018-10-13 11:40:00+00:00,286.1947,10.18,13.76,47.84626,-54.09684
2018-10-13 11:50:00+00:00,286.3314,10.0,14.0,47.84626,-54.09684
2018-10-13 12:00:00+00:00,290.9164,9.94,13.92,47.84626,-54.09684
2018-10-13 12:10:00+00:00,313.9647,9.97,13.76,47.84626,-54.09684
2018-10-13 12:20:00+00:00,327.9512,10.11,13.76,47.84626,-54.09684
2018-10-13 12:30:00+00:00,329.753,10.03,13.76,47.84626,-54.09684
2018-10-13 12:40:00+00:00,337.4096,10.09,13.92,47.84626,-54.09684
2018-10-13 12:50:00+00:00,343.8763,10.08,14.16,47.84626,-54.09684
2018-10-13 13:00:00+00:00,350.2263,10.2,14.24,47.84626,-54.09684
2018-10-13 13:10:00+00:00,361.7863,10.28,14.4,47.84626,-54.09684
2018-10-13 13:20:00+00:00,373.3512,10.2,16.63,47.84626,-54.09684
2018-10-13 13:30:00+00:00,368.7163,10.1,16.47,47.84626,-54.09684
2018-10-13 13:40:00+00:00,362.2695,9.95,14.72,47.84626,-54.09684
2018-10-13 13:50:00+00:00,366.2296,9.97,14.96,47.84626,-54.09684
2018-10-13 14:00:00+00:00,378.0796,10.04,14.72,47.84626,-54.09684
2018-10-13 14:10:00+00:00,381.1179,10.0,14.96,47.84626,-54.09684
2018-10-13 14:20:00+00:00,381.5929,9.97,14.56,47.84626,-54.09684
2018-10-13 14:30:00+00:00,385.7779,9.98,14.48,47.84626,-54.09684
2018-10-13 14:40:00+00:00,388.9296,9.96,14.56,47.84626,-54.09684
2018-10-13 14:50:00+00:00,390.2612,9.9,14.56,47.84626,-54.09684
2018-10-13 15:00:00+00:00,375.2562,9.9,14.64,47.84626,-54.09684
2018-10-13 15:10:00+00:00,361.3029,9.9,14.32,47.84626,-54.09684
2018-10-13 15:20:00+00:00,362.2296,9.9,14.32,47.84626,-54.09684
2018-10-13 15:30:00+00:00,367.7094,9.97,14.32,47.84626,-54.09684
2018-10-13 15:40:00+00:00,354.0397,10.3,14.4,47.84626,-54.09684
2018-10-13 15:50:00+00:00,346.7529,10.08,14.48,47.84626,-54.09684
2018-10-13 16:00:00+00:00,350.553,10.0,14.4,47.84626,-54.09684
2018-10-13 16:10:00+00:00,342.8662,10.0,14.24,47.84626,-54.09684
2018-10-13 16:20:00+00:00,324.5947,9.98,14.24,47.84626,-54.09684
2018-10-13 16:30:00+00:00,320.5547,9.98,14.24,47.84626,-54.09684
2018-10-13 16:40:00+00:00,325.833,10.0,14.24,47.84626,-54.09684
2018-10-13 16:50:00+00:00,304.898,10.0,14.16,47.84626,-54.09684
2018-10-13 17:00:00+00:00,292.4614,10.04,14.08,47.84626,-54.09684
2018-10-13 17:10:00+00:00,307.8846,10.09,14.0,47.84626,-54.09684
2018-10-13 17:20:00+00:00,309.1047,10.1,14.08,47.84626,-54.09684
2018-10-13 17:30:00+00:00,287.0231,10.19,14.16,47.84626,-54.09684
2018-10-13 17:40:00+00:00,286.3947,10.2,14.16,47.84626,-54.09684
2018-10-13 17:50:00+00:00,294.4214,10.26,14.16,47.84626,-54.09684
2018-10-13 18:00:00+00:00,280.703,10.2,14.08,47.84626,-54.09684
2018-10-13 18:10:00+00:00,261.0947,10.2,13.92,47.84626,-54.09684
2018-10-13 18:20:00+00:00,269.4897,10.25,13.92,47.84626,-54.09684
2018-10-13 18:30:00+00:00,269.7831,10.3,13.92,47.84626,-54.09684
2018-10-13 18:40:00+00:00,249.8081,10.3,13.92,47.84626,-54.09684
2018-10-13 18:50:00+00:00,234.848,10.3,13.92,47.84626,-54.09684
2018-10-13 19:00:00+00:00,237.5165,10.3,13.84,47.84626,-54.09684
2018-10-13 19:10:00+00:00,233.8281,10.33,13.68,47.84626,-54.09684
2018-10-13 19:20:00+00:00,234.0264,10.34,13.68,47.84626,-54.09684
2018-10-13 19:30:00+00:00,248.0031,10.34,13.6,47.84626,-54.09684
2018-10-13 19:40:00+00:00,242.5264,10.36,13.6,47.84626,-54.09684
2018-10-13 19:50:00+00:00,217.0631,10.2,13.68,47.84626,-54.09684
2018-10-13 20:00:00+00:00,210.4648,10.2,13.6,47.84626,-54.09684
2018-10-13 20:10:00+00:00,230.8064,10.2,13.44,47.84626,-54.09684
2018-10-13 20:20:00+00:00,225.7031,10.2,13.37,47.84626,-54.09684
2018-10-13 20:30:00+00:00,220.5715,10.2,13.37,47.84626,-54.09684
2018-10-13 20:40:00+00:00,238.3864,10.3,13.37,47.84626,-54.09684
2018-10-13 20:50:00+00:00,234.2315,10.3,13.29,47.84626,-54.09684
2018-10-13 21:00:00+00:00,221.0298,10.3,13.29,47.84626,-54.09684
2018-10-13 21:10:00+00:00,249.1264,10.3,13.13,47.84626,-54.09684
2018-10-13 21:20:00+00:00,267.4231,10.3,13.13,47.84626,-54.09684
2018-10-13 21:30:00+00:00,237.1948,10.3,13.13,47.84626,-54.09684
2018-10-13 21:40:00+00:00,213.4948,10.37,13.13,47.84626,-54.09684
2018-10-13 21:50:00+00:00,243.7747,10.39,13.13,47.84626,-54.09684
2018-10-13 22:00:00+00:00,250.8564,10.37,13.05,47.84626,-54.09684
2018-10-13 22:10:00+00:00,230.4831,10.38,12.97,47.84626,-54.09684
2018-10-13 22:20:00+00:00,238.7197,10.4,13.05,47.84626,-54.09684
2018-10-13 22:30:00+00:00,258.9481,10.4,13.05,47.84626,-54.09684
2018-10-13 22:40:00+00:00,246.373,10.4,13.13,47.84626,-54.09684
2018-10-13 22:50:00+00:00,237.2714,10.4,13.13,47.84626,-54.09684
2018-10-13 23:00:00+00:00,246.9398,10.4,13.05,47.84626,-54.09684
2018-10-13 23:10:00+00:00,253.0214,10.44,12.97,47.84626,-54.09684
2018-10-13 23:20:00+00:00,257.558,10.45,13.05,47.84626,-54.09684
2018-10-13 23:30:00+00:00,260.5714,10.43,13.05,47.84626,-54.09684
2018-10-13 23:40:00+00:00,272.5347,10.42,13.05,47.84626,-54.09684
2018-10-13 23:50:00+00:00,283.598,10.43,13.05,47.84626,-54.09684
